Location: ???????
(55.5917°N, 37.3214°E)
Time: 18:31:32
(UTC+00:00)

Cosmos 1242 Rocket - Pass Details

Date: 14 July 2020
Orbit: 448 x 487 km, 81.2° (Epoch: 07 August)

Event Time Altitude Azimuth Distance (km) Brightness Sun altitude
Rises 00:05:31 0° 347° (NNW) 2,469 6.8 -6.6°
Reaches altitude 10° 00:07:36 10° 350° (N) 1,592 5.9 -6.4°
Maximum altitude 00:11:03 69° 74° (ENE) 490 2.8 -6.1°
Drops below altitude 10° 00:14:31 10° 158° (SSE) 1,587 4.9 -5.8°
Sets 00:16:35 0° 161° (SSE) 2,459 5.8 -5.6°
